Location: Corcelles
(46.1547°N, 4.7234°E)
Time: 04:44:12
(UTC+00:00)

Cosmos 1271 Rocket - Pass Details

Date: 14 July 2020
Orbit: 497 x 546 km, 81.2° (Epoch: 06 August)

Event Time Altitude Azimuth Distance (km) Brightness Sun altitude
Rises 02:40:23 0° 354° (N) 2,628 7.0 -11.7°
Reaches altitude 10° 02:42:36 10° 0° (N) 1,731 6.1 -11.4°
Maximum altitude 02:46:16 47° 75° (ENE) 675 3.7 -11.0°
Drops below altitude 10° 02:49:53 10° 151° (SSE) 1,700 5.1 -10.6°
Sets 02:52:02 0° 157° (SSE) 2,575 6.0 -10.3°
